DECAYED
Showing default

DEWASAT-2, 56180 (Decayed)

Orbit data source: Space-Track

DEWASAT-2, 56180 was a payload satellite owned by DEWA (AE) in LEO that was launched on Sat, 15 Apr 2023 UTC via an FALCON 9 launch vehicle from the Air Force Western Test Range (AFWTR). Payload-class satellites include a variety of spacecraft equipped with specific instruments for various scientific and technological missions. These include communications satellites like Starlink; space stations such as the ISS; scientific satellites like the Hubble; Earth observation satellites from companies like Planet Labs, Umbra, and HawkEye 360; GPS; miniature CubeSats for education and research; and military/defense satellites.

Not visible in the next 10 days
Identifier
56180, 2023-054C
Orbit
Decayed
Country
Flag of AEAE / UAE
Related business
Flag of AEHayyat Kahraba' Wamiah Dubay (AE)
Manufacturer
NanoAvionics
Mission
Decayed Civil Communications
Bus & Motor
CUBESAT 6U, Unknown motor
Mass
~10 kg wet, ~10 kg dry
Launch date (UTC)
2023-04-15 (3 years ago)
Launch vehicle
FALCON 9
Launch site
Air Force Western Test Range (AFWTR)
Object type
Payload
Rocket body
Debris
Shape & HBR
Box + 2 Pan, 0.1 m
Radar Cross Section
0.080 m², Medium (>0.1 m² and < 1m²)

Expand to show TLE details & history
Last TLE update: 1 year ago

TLE from 1 year ago
0 DEWASAT-2
1 56180U 23054C   25071.83889132  .04223142  24807-5  92497-3 0  9999
2 56180  97.3299 348.7790 0007162 196.2344 163.8723 16.30485304108243
Epoch: 2025-03-12T20:08Z
TLE epoch observation values (Epoch: 2025-03-12T20:08:00.210Z)
Latitude
0.00008°
Longitude
-123.94362°
Altitude
198.998 km
Speed
7.784 km/s
True Right ascension
23h 15m 06s
True Declination
0° 00' 00"
Sunlit
Object was in daylight at epoch
Visualization orbit readout
Latitude
Unknown
Longitude
Unknown
Altitude
Unknown
Speed
Unknown
Apparent Right ascension
Unknown
Apparent Declination
Unknown
Sunlit
N/A
Visualization observer readout
Local Sidereal Time
23:18:04
Azimuth
Unknown
Elevation
Unknown
Doppler factor
Unknown
Orbital elements
Apogee altitude
192.755 km
Perigee altitude
183.35 km
Semi-major axis
6,566.19 km
Eccentricity
0.00072
Inclination
97.3299°
RAAN
348.779°
Arg. of periapsis
196.2344°
True anomaly
163.89508°
Mean anomaly
163.8723°
Eccentric anomaly
163.88369°
Mean motion
4.07918 °/min
Orbital period
88.25 mins
BSTAR
0.00092497
Loading maneuver chart data...
Computing Atmospheric mass density...
Loading historical data...
Loading historical data...
Loading historical data...
Loading historical data...
Loading historical data...
Loading historical data...
Loading historical data...

Documentation

Showing up to 5 results
|